This is the latest recevied weather packets stored in our database for station/object EA7OC-10. If no packets are shown the sender has not sent any weather packets the latest 10 day(s).
| Time | Temp. | Humidity | Pressure | Rain* | Wind** | Luminosity | Snow |
|---|---|---|---|---|---|---|---|
| 1788495853 | 25.56° C | 22% | 1020.3 hPa | - | - | - | - |
| 1788494953 | 25.56° C | 22% | 1019.8 hPa | - | - | - | - |
| 1788494053 | 25.56° C | 22% | 1019.8 hPa | - | - | - | - |
| 1788493153 | 26.11° C | 22% | 1020 hPa | - | - | - | - |
| 1788492253 | 25.56° C | 22% | 1020.1 hPa | - | - | - | - |
| 1788491353 | 26.11° C | 22% | 1020 hPa | - | - | - | - |
| 1788490453 | 26.11° C | 22% | 1020.1 hPa | - | - | - | - |
| 1788489553 | 26.67° C | 22% | 1020 hPa | - | - | - | - |
| 1788488652 | 26.67° C | 22% | 1020 hPa | - | - | - | - |
| 1788487752 | 27.22° C | 22% | 1020.1 hPa | - | - | - | - |
| 1788486852 | 27.22° C | 22% | 1020.2 hPa | - | - | - | - |
| 1788485952 | 27.78° C | 21% | 1020.3 hPa | - | - | - | - |
| 1788485052 | 27.78° C | 22% | 1020.5 hPa | - | - | - | - |
| 1788484152 | 28.89° C | 21% | 1020.5 hPa | - | - | - | - |
| 1788483252 | 28.89° C | 22% | 1020.4 hPa | - | - | - | - |
| 1788482352 | 28.89° C | 21% | 1020.5 hPa | - | - | - | - |
| 1788481452 | 29.44° C | 22% | 1020.5 hPa | - | - | - | - |
| 1788480552 | 29.44° C | 21% | 1020.5 hPa | - | - | - | - |
| 1788479651 | 29.44° C | 21% | 1020.4 hPa | - | - | - | - |
| 1788478751 | 29.44° C | 21% | 1020.3 hPa | - | - | - | - |
| 1788477851 | 29.44° C | 21% | 1020.3 hPa | - | - | - | - |
| 1788476951 | 30° C | 21% | 1020.2 hPa | - | - | - | - |
| 1788476051 | 30.56° C | 21% | 1020.3 hPa | - | - | - | - |
| 1788475151 | 31.11° C | 21% | 1020.2 hPa | - | - | - | - |
| 1788474251 | 31.11° C | 20% | 1020.1 hPa | - | - | - | - |
* Rain since midnight (hover to see other rain measurements)
** Current wind speed in m/s (hover to see current wind gust speed)